Dursley Dozen 2016
Skip Navigation Links
Results
Teams
Dursley & District Races
Details
Smartphone Results
14 February 2016
HyperLink
Click on your name for your detailed race data.
Page 1 of 10 (451 items)
[1]2345678910
Pos
Bib No
Fav
Share
Photo
Print
Name
Time
Chip Time
Category
Cat Pos
Gender
Gen Pos
Club
Pace
1255Garry HUGHES1:22:39.71:22:34.8MSen1Male1STROUD AC 8.7 m/hr
2163Wyclef FORBES1:24:19.71:24:14.6MSen2Male2CIRENCESTER AC 8.5 m/hr
38Dan ANDERSON1:24:44.91:24:39.8MSen3Male3DURSLEY RUNNING CLUB 8.5 m/hr
4257Martin HUMPHREYS1:28:15.01:28:09.6M401Male4STROUD AC 8.2 m/hr
5235David HOBBS1:28:39.61:28:33.6M451Male5WESTBURY HARRIERS 8.1 m/hr
6149James EVERETT1:28:57.41:28:51.4MSen4Male6  8.1 m/hr
7536Alec WOODS1:29:24.91:29:19.7M501Male7BRISTOL & WEST ATHLETICS CLUB 8.1 m/hr
8452Nathan SMITH1:29:36.91:29:29.6MSen5Male8GLOUCESTER AC 8.0 m/hr
916Edward BAILEY1:29:51.61:29:42.6MSen6Male9CHIPPENHAM HARRIERS 8.0 m/hr
10148Neil EVERETT1:29:53.61:29:48.5MSen7Male10TEAM BATH AC 8.0 m/hr
11186Annabel GRANGER1:30:25.91:30:20.7F401Female1BRISTOL & WEST ATHLETICS CLUB 8.0 m/hr
1299Rob COWLARD1:30:48.71:30:42.8M402Male11THORNBURY RUNNING CLUB 7.9 m/hr
13203Anthony HALL1:31:20.11:31:15.2MSen8Male12BRISTOL & WEST ATHLETICS CLUB 7.9 m/hr
14105Mike CROMPTON1:31:38.41:31:32.2MSen9Male13DURSLEY RUNNING CLUB 7.9 m/hr
15467Samuel STONE1:33:24.51:33:18.7MSen10Male14EMERSON GREEN RUNNING CLUB 7.7 m/hr
16251Simon HUCKETT1:33:42.11:33:37.3M403Male15WESTBURY HARRIERS 7.7 m/hr
17114Richard DAVIS1:34:18.81:34:11.6M452Male16  7.6 m/hr
18423Dan SANDFORD1:34:25.41:34:09.6M404Male17FOREST OF DEAN AC 7.6 m/hr
19267Luke JAMES1:34:56.01:34:51.0MSen11Male18MONROSS TRAILBLAZERS 7.6 m/hr
20127Rob DIXON1:35:02.91:34:56.2MSen12Male19  7.6 m/hr
21279Braddan JOHNSON1:35:19.91:35:12.4MSen13Male20DURSLEY RUNNING CLUB 7.6 m/hr
22362James NOBLES1:35:40.71:35:27.6MSen14Male21  7.5 m/hr
23123Roger DENTON1:35:53.81:35:42.8M502Male22THORNBURY RUNNING CLUB 7.5 m/hr
24151Howard EWAN1:35:59.51:35:51.5MSen15Male23CIRENCESTER AC 7.5 m/hr
25402Niki RADNEDGE1:36:16.81:36:08.5MSen16Male24  7.5 m/hr
26324Wayne MAYER1:36:23.41:36:16.9M453Male25TEAM PASSION FIT 7.5 m/hr
27165Robert FORD1:36:29.31:36:23.1MSen17Male26STRATFORD UPON AVON AC 7.5 m/hr
28450Thomas SMITH1:36:59.91:36:54.2MSen18Male27  7.4 m/hr
29417John RUSSELL1:37:24.11:37:08.4M454Male28FOREST OF DEAN AC 7.4 m/hr
30405Travis RICHINGS1:37:34.41:37:22.6MSen19Male29PASSION FIT 7.4 m/hr
31427Neil SCHOLES1:37:50.11:37:40.9M503Male30BRISTOL & WEST ATHLETICS CLUB 7.4 m/hr
32155Nick FAYE1:38:01.41:37:52.6M455Male31WESTBURY HARRIERS 7.3 m/hr
33509Matthew WATERS1:38:04.51:37:57.0MSen20Male32  7.3 m/hr
34493Simon TOOTELL1:38:06.11:37:55.9MSen21Male33WOOTTON ROAD RUNNERS 7.3 m/hr
35470Gary STRETTON1:38:09.31:38:01.4MSen22Male34KINGSWOOD TRIATHLON CLUB 7.3 m/hr
36367Martin O\'CONNOR1:38:12.41:38:06.8MSen23Male35STROUD AC 7.3 m/hr
37360Wendy NICHOLLS1:38:16.41:38:10.7F451Female2CIRENCESTER AC 7.3 m/hr
3860Helen BROWN1:38:55.61:38:49.4F402Female3FOREST OF DEAN AC 7.3 m/hr
39232Tim HILL1:39:25.71:39:18.4MSen24Male36TEAM BATH AC 7.2 m/hr
40442Haydn SMITH1:39:33.31:39:26.7MSen25Male37DURSLEY RUNNING CLUB 7.2 m/hr
41549Nick YOUNG1:39:53.41:39:41.3MSen26Male38  7.2 m/hr
42448Hibbit ASHLEY-TOWELL1:40:04.91:39:49.6M456Male39FOREST OF DEAN AC 7.2 m/hr
43399Clare PROSSER1:40:16.81:40:11.1F403Female4WELLS CITY HARRIERS 7.2 m/hr
44524James WILKINSON1:40:25.91:40:12.8MSen27Male40CHELTENHAM & COUNTY HARRIERS 7.2 m/hr
45425Ivan SARTI1:40:31.81:39:58.6M504Male41STRATFORD UPON AVON AC 7.2 m/hr
4663Joe BROWNING1:40:36.81:40:24.7MSen28Male42DURSLEY RUNNING CLUB 7.2 m/hr
47520Jake WICKENS1:40:51.91:40:44.0MSen29Male43  7.1 m/hr
4833Neil BENNETT1:41:07.11:40:56.4MSen30Male44TEAM PASSION FIT 7.1 m/hr
4927Liza BARRY1:41:20.11:41:07.7FSen1Female5CLC STRIDERS 7.1 m/hr
50545Will WYKES1:41:24.21:41:15.9M405Male45  7.1 m/hr
Page 1 of 10 (451 items)
[1]2345678910
fb

HyperLink Copyright (c) G Vincent, 2017